Joliet, IL

2:18 AM CST on December 10, 2016 (GMT -0600)
Joliet Regional

Weather History for KJOT - October, 2013

Change the Weather History Date:

Friday, October 4, 2013

  Actual Average (KARR) Record (KARR)
Temperature  
Mean Temperature 72 °F -  
Max Temperature 79 °F 65 °F 88 °F (2005)
Min Temperature 64 °F 40 °F 28 °F (2004)
Cooling Degree Days 6    
Growing Degree Days 22 (Base 50)    
Moisture  
Dew Point 65 °F    
Average Humidity 85    
Maximum Humidity 94    
Minimum Humidity 68    
Precipitation  
Precipitation 0.12 in - - ()
Sea Level Pressure  
Sea Level Pressure 29.96 in    
Wind  
Wind Speed 3 mph (SE)    
Max Wind Speed 8 mph    
Max Gust Speed -    
Visibility 8 miles    
Events      
Averages and records for this station are not official NWS values.
T = Trace of Precipitation, MM = Missing Value Source: NWS Daily Summary

Daily Weather History Graph

Daily Weather History Graph

Search for Another Location

Airport or City:

Trip Planner

Search our weather history database for the weather conditions in past years. The results will help you decide how hot, cold, wet, or windy it might be!

Date:

Astronomy

Oct. 04, 2013 Rise Set
Actual Time 6:52 AM CDT 6:29 PM CDT
Civil Twilight 6:25 AM CDT 6:56 PM CDT
Nautical Twilight 5:53 AM CDT 7:28 PM CDT
Astronomical Twilight 5:20 AM CDT 8:00 PM CDT
Moon 6:28 AM CDT (10/4) 6:10 PM CDT (10/4)
Length of Visible Light 12h 31m
Length of Day
11h 36m
Waning Crescent, 0% of the Moon is Illuminated
Oct 4
Waning Crescent
Oct 4
New
Oct 11
First Quarter
Oct 18
Full
Oct 26
Last Quarter

Hourly Weather History & Observations

Time (CDT) Temp. Dew Point Humidity Pressure Visibility Wind Dir Wind Speed Gust Speed Precip Events Conditions
12:15 AM 65.3 °F 62.1 °F 89% 29.94 in 10.0 mi SSW 4.6 mph - N/A   Scattered Clouds
12:35 AM 65.3 °F 61.5 °F 88% 29.94 in 10.0 mi SSW 3.5 mph - N/A   Scattered Clouds
12:55 AM 65.3 °F 61.5 °F 88% 29.94 in 10.0 mi SSW 8.1 mph - N/A   Clear
1:15 AM 65.5 °F 61.5 °F 87% 29.94 in 10.0 mi SSW 5.8 mph - N/A   Clear
1:35 AM 65.8 °F 61.7 °F 86% 29.95 in 10.0 mi SW 3.5 mph - N/A   Mostly Cloudy
1:55 AM 65.3 °F 61.7 °F 88% 29.95 in 10.0 mi Calm Calm - N/A   Mostly Cloudy
2:15 AM 64.8 °F 61.2 °F 88% 29.94 in 10.0 mi Calm Calm - N/A   Clear
2:35 AM 64.0 °F 61.2 °F 90% 29.93 in 10.0 mi South 3.5 mph - N/A   Clear
2:55 AM 65.1 °F 61.7 °F 89% 29.93 in 10.0 mi South 5.8 mph - N/A   Clear
3:15 AM 66.2 °F 61.7 °F 85% 29.93 in 10.0 mi South 5.8 mph - N/A   Clear
3:35 AM 66.4 °F 62.1 °F 86% 29.94 in 10.0 mi SSW 5.8 mph - N/A   Clear
3:55 AM 67.5 °F 62.6 °F 84% 29.94 in 10.0 mi SSW 8.1 mph - N/A   Clear
4:15 AM 67.5 °F 62.2 °F 83% 29.95 in 10.0 mi SSW 3.5 mph - N/A   Clear
4:35 AM 66.7 °F 62.1 °F 85% 29.96 in 10.0 mi Calm Calm - N/A   Clear
4:55 AM 66.0 °F 61.9 °F 86% 29.96 in 10.0 mi SSW 3.5 mph - N/A   Clear
5:15 AM 66.4 °F 62.2 °F 86% 29.97 in 10.0 mi Calm Calm - N/A   Scattered Clouds
5:35 AM 66.2 °F 62.6 °F 88% 29.97 in 10.0 mi Calm Calm - N/A   Mostly Cloudy
5:55 AM 66.9 °F 62.4 °F 85% 29.98 in 10.0 mi Calm Calm - N/A   Mostly Cloudy
6:15 AM 65.7 °F 62.1 °F 88% 29.99 in 10.0 mi North 4.6 mph - N/A   Mostly Cloudy
6:35 AM 65.5 °F 62.2 °F 89% 29.99 in 10.0 mi Calm Calm - N/A   Overcast
6:55 AM 65.3 °F 62.6 °F 91% 29.98 in 10.0 mi Calm Calm - N/A   Overcast
7:15 AM 65.3 °F 62.6 °F 91% 29.97 in 10.0 mi Calm Calm - N/A   Overcast
7:35 AM 66.0 °F 63.0 °F 90% 29.97 in 10.0 mi SSW 3.5 mph - N/A   Overcast
7:55 AM 66.6 °F 63.0 °F 88% 29.98 in 10.0 mi Calm Calm - N/A   Overcast
8:15 AM 67.1 °F 63.3 °F 88% 29.98 in 10.0 mi South 3.5 mph - N/A   Overcast
8:35 AM 67.6 °F 63.5 °F 87% 29.98 in 10.0 mi South 3.5 mph - N/A   Overcast
8:55 AM 68.0 °F 64.0 °F 87% 29.99 in 10.0 mi Calm Calm - N/A   Overcast
9:15 AM 68.4 °F 64.4 °F 87% 30.00 in 10.0 mi South 3.5 mph - N/A   Overcast
9:35 AM 68.7 °F 64.9 °F 88% 30.00 in 10.0 mi South 4.6 mph - N/A   Overcast
9:55 AM 68.7 °F 65.3 °F 89% 30.00 in 5.0 mi SE 3.5 mph - N/A   Overcast
10:15 AM 68.4 °F 65.1 °F 89% 30.00 in 7.0 mi Calm Calm - N/A   Overcast
10:35 AM 69.1 °F 65.5 °F 88% 29.99 in 7.0 mi Calm Calm - N/A   Overcast
10:55 AM 69.8 °F 66.2 °F 88% 29.99 in 7.0 mi Calm Calm - N/A   Overcast
11:15 AM 70.0 °F 66.2 °F 88% 29.99 in 7.0 mi Calm Calm - N/A   Overcast
11:35 AM 71.1 °F 66.6 °F 86% 30.00 in 5.0 mi SSW 4.6 mph - N/A   Overcast
11:55 AM 71.8 °F 66.7 °F 84% 29.99 in 7.0 mi Calm Calm - N/A   Overcast
12:15 PM 72.3 °F 66.6 °F 82% 30.00 in 7.0 mi Calm Calm - N/A   Overcast
12:35 PM 73.4 °F 67.1 °F 81% 30.00 in 7.0 mi Calm Calm - N/A   Mostly Cloudy
12:55 PM 74.8 °F 67.6 °F 78% 29.99 in 7.0 mi Calm Calm - N/A   Mostly Cloudy
1:15 PM 76.5 °F 68.0 °F 75% 29.98 in 7.0 mi East 3.5 mph - N/A   Scattered Clouds
1:35 PM 77.9 °F 68.2 °F 72% 29.98 in 7.0 mi Calm Calm - N/A   Clear
1:55 PM 78.8 °F 68.5 °F 71% 29.97 in 10.0 mi NE 4.6 mph - N/A   Clear
2:15 PM 79.0 °F 67.5 °F 68% 29.96 in 10.0 mi Calm Calm - N/A   Clear
2:35 PM 79.2 °F 68.0 °F 69% 29.96 in 10.0 mi North 3.5 mph - N/A   Scattered Clouds
2:55 PM 79.2 °F 68.0 °F 69% 29.96 in 10.0 mi Calm Calm - N/A   Scattered Clouds
3:15 PM 77.5 °F 67.8 °F 72% 29.96 in 10.0 mi North 8.1 mph - N/A   Scattered Clouds
3:35 PM 76.1 °F 68.0 °F 76% 29.95 in 7.0 mi NNE 6.9 mph - N/A   Clear
3:55 PM 76.3 °F 68.0 °F 75% 29.94 in 7.0 mi North 5.8 mph - N/A   Clear
4:15 PM 76.1 °F 68.0 °F 76% 29.94 in 7.0 mi NNE 4.6 mph - N/A   Clear
4:35 PM 75.6 °F 68.0 °F 77% 29.94 in 7.0 mi NE 3.5 mph - N/A   Clear
4:55 PM 76.1 °F 68.2 °F 76% 29.94 in 7.0 mi ENE 3.5 mph - N/A   Clear
5:15 PM 76.1 °F 68.7 °F 78% 29.93 in 7.0 mi East 4.6 mph - N/A   Clear
5:35 PM 76.1 °F 68.2 °F 76% 29.93 in 7.0 mi ENE 3.5 mph - N/A   Clear
5:55 PM 75.6 °F 68.0 °F 77% 29.94 in 7.0 mi East 3.5 mph - N/A   Clear
6:15 PM 75.2 °F 68.0 °F 78% 29.94 in 7.0 mi East 3.5 mph - N/A   Clear
6:35 PM 73.6 °F 68.0 °F 83% 29.94 in 7.0 mi Calm Calm - N/A   Clear
6:55 PM 73.0 °F 67.6 °F 83% 29.94 in 7.0 mi ESE 4.6 mph - N/A   Clear
7:15 PM 73.4 °F 68.0 °F 83% 29.93 in 7.0 mi ESE 6.9 mph - N/A   Clear
7:35 PM 72.7 °F 67.6 °F 84% 29.94 in 5.0 mi Calm Calm - N/A   Haze
7:55 PM 71.6 °F 67.1 °F 86% 29.94 in 5.0 mi ESE 4.6 mph - N/A   Haze
8:15 PM 71.8 °F 67.3 °F 86% 29.95 in 5.0 mi NNE 5.8 mph - N/A   Haze
8:35 PM 70.5 °F 66.9 °F 88% 29.95 in 5.0 mi ENE 3.5 mph - N/A   Clear
8:55 PM 69.8 °F 66.7 °F 90% 29.96 in 4.0 mi NE 4.6 mph - N/A   Clear
9:15 PM 69.3 °F 66.2 °F 90% 29.97 in 3.0 mi NE 5.8 mph - N/A   Clear
9:35 PM 68.9 °F 65.8 °F 90% 29.97 in 3.0 mi NE 5.8 mph - N/A   Scattered Clouds
9:55 PM 68.2 °F 65.5 °F 91% 29.96 in 2.5 mi Calm Calm - N/A   Scattered Clouds
10:15 PM 67.8 °F 65.5 °F 92% 29.96 in 2.5 mi Calm Calm - N/A   Scattered Clouds
10:35 PM 67.5 °F 65.3 °F 93% 29.96 in 2.5 mi Calm Calm - N/A   Clear
10:55 PM 66.7 °F 64.9 °F 94% 29.96 in 2.5 mi Calm Calm - N/A   Clear
11:15 PM 66.4 °F 64.2 °F 93% 29.96 in 2.0 mi Calm Calm - N/A   Clear
11:35 PM 66.2 °F 64.6 °F 94% 29.97 in 2.5 mi Calm Calm - N/A   Clear
11:55 PM 66.2 °F 64.6 °F 94% 29.96 in 2.5 mi Calm Calm - N/A   Clear